View from above orbital plane
|
View from above satellite
|
Ground track
|
The orbit data is extracted from the following two-line orbital elements,
1 12747U 81053CQ 22181.16822566 .00000414 00000-0 49884-3 0 9993
2 12747 83.0671 72.9170 0133473 63.2606 60.8306 13.60510464 21936
Epoch (UTC): | 30 June 2022 04:02:14 |
Eccentricity: | 0.0133473 |
inclination: | 83.0671° |
perigee height: | 935 km |
apogee height: | 1133 km |
right ascension of ascending node: | 72.9170° |
argument of perigee: | 63.2606° |
revolutions per day: | 13.60510464 |
mean anomaly at epoch: | 60.8306° |
orbit number at epoch: | 2193 |
The dashed part of the orbit path shows where the satellite is in the earth's shadow,
|
|